Dubuque, IA

6:14 AM CDT on October 19, 2019 (GMT -0500)
Dubuque Regional

Weather History for KDBQ - August, 2019

Change the Weather History Date:

Monday, August 12, 2019

  Actual Average Record
Temperature  
Mean Temperature 70 °F 71 °F  
Max Temperature 73 °F 80 °F 98 °F (1918)
Min Temperature 67 °F 61 °F 47 °F (1977)
Degree Days  
Heating Degree Days 0 0  
Month to date heating degree days 0 0  
Since 1 June heating degree days 29 48  
Since 1 July heating degree days 0 8  
Cooling Degree Days 5 6  
Month to date cooling degree days 69 77  
Year to date cooling degree days 522 477  
Since 1 June cooling degree days 496 440  
Growing Degree Days 20 (Base 50)    
Moisture  
Dew Point 69 °F    
Average Humidity 97    
Maximum Humidity 100    
Minimum Humidity 93    
Precipitation  
Precipitation 1.15 in 0.15 in 1.15 in (2019)
Month to date precipitation 2.99 1.71  
Year to date precipitation 29.10 23.29  
Snow  
Snow 0.00 in 0.00 in - ()
Month to date snowfall 0.0 0.0  
Since 1 June snowfall 0.0 0.0  
Since 1 July snowfall 0.0 0.0  
Snow Depth 0.00 in    
Sea Level Pressure  
Sea Level Pressure 29.88 in    
Wind  
Wind Speed 6 mph (ENE)    
Max Wind Speed 21 mph    
Max Gust Speed 25 mph    
Visibility 2 miles    
Events Fog , Rain    
T = Trace of Precipitation, MM = Missing Value Source: NWS Daily Summary

Daily Weather History Graph

Daily Weather History Graph

Search for Another Location

Airport or City:

Astronomy

Aug. 12, 2019 Rise Set
Actual Time 6:06 AM CDT 8:08 PM CDT
Civil Twilight 5:35 AM CDT 8:39 PM CDT
Nautical Twilight 4:58 AM CDT 9:16 PM CDT
Astronomical Twilight 4:17 AM CDT 9:57 PM CDT
Moon 6:41 PM CDT (8/12) 3:12 AM CDT (8/12)
Length of Visible Light 15h 03m
Length of Day
14h 01m
Waxing Gibbous, 93% of the Moon is Illuminated
Aug 12
Waxing Gibbous
Aug 15
Full
Aug 23
Last Quarter
Aug 30
New
Sep 5
First Quarter

Hourly Weather History & Observations

Time (CDT) Temp. Dew Point Humidity Pressure Visibility Wind Dir Wind Speed Gust Speed Precip Events Conditions
12:18 AM 68.0 °F 66.9 °F 96% 29.96 in 1.2 mi Calm Calm - N/A   Partly Cloudy
12:25 AM 68.0 °F 68.0 °F 100% 29.96 in 0.5 mi Calm Calm - N/A Fog Fog
12:30 AM 69.1 °F 68.0 °F 96% 29.96 in 1.0 mi Calm Calm - N/A   Clear
12:53 AM 66.9 °F 66.9 °F 100% 29.96 in 1.5 mi Calm Calm - N/A   Mostly Cloudy
1:02 AM 69.1 °F 69.1 °F 100% 29.97 in 0.5 mi Calm Calm - N/A Fog Fog
1:09 AM 69.1 °F 69.1 °F 100% 29.97 in 2.0 mi Calm Calm - N/A   Mostly Cloudy
1:21 AM 69.1 °F 68.0 °F 96% 29.97 in 0.8 mi Calm Calm - N/A   Mostly Cloudy
1:34 AM 66.9 °F 66.9 °F 100% 29.97 in 2.0 mi North 4.6 mph - N/A   Scattered Clouds
1:42 AM 68.0 °F 68.0 °F 100% 29.96 in 0.8 mi NNE 4.6 mph - N/A   Mostly Cloudy
1:50 AM 69.8 °F 69.8 °F 100% 29.96 in 0.2 mi NE 4.6 mph - N/A Fog Fog
1:53 AM 69.1 °F 69.1 °F 100% 29.94 in 0.2 mi NE 4.6 mph - N/A Fog Fog
1:58 AM 68.0 °F 68.0 °F 100% 29.95 in 0.2 mi NNE 4.6 mph - N/A Fog Fog
2:53 AM 69.1 °F 69.1 °F 100% 29.93 in 0.2 mi NE 5.8 mph - N/A Fog Fog
3:24 AM 69.1 °F 69.1 °F 100% 29.93 in 0.2 mi NE 4.6 mph - N/A Fog Fog
3:40 AM 69.1 °F 69.1 °F 100% 29.92 in 0.5 mi Calm Calm - N/A Fog Fog
3:51 AM 69.8 °F 69.8 °F 100% 29.92 in 2.5 mi Calm Calm - N/A   Overcast
3:53 AM 69.1 °F 69.1 °F 100% 29.90 in 3.0 mi Calm Calm - N/A   Overcast
4:38 AM 68.0 °F 68.0 °F 100% 29.90 in 1.2 mi NNE 4.6 mph - N/A   Scattered Clouds
4:44 AM 66.9 °F 66.9 °F 100% 29.91 in 0.2 mi NNE 3.5 mph - N/A Fog Fog
4:53 AM 66.9 °F 66.9 °F 100% 29.89 in 0.2 mi Calm Calm - N/A Fog Fog
5:06 AM 66.9 °F 66.9 °F 100% 29.91 in 0.2 mi Calm Calm - N/A Fog Fog
5:18 AM 68.0 °F 68.0 °F 100% 29.91 in 0.2 mi Calm Calm - N/A Fog Fog
5:26 AM 69.1 °F 68.0 °F 96% 29.90 in 0.5 mi East 4.6 mph - N/A Fog Fog
5:45 AM 69.1 °F 69.1 °F 100% 29.91 in 0.8 mi East 4.6 mph - N/A   Overcast
5:53 AM 69.1 °F 69.1 °F 100% 29.88 in 0.5 mi East 5.8 mph - N/A Fog Fog
6:13 AM 68.0 °F 68.0 °F 100% 29.92 in 0.5 mi East 3.5 mph - N/A Fog Fog
6:26 AM 68.0 °F 68.0 °F 100% 29.93 in 0.5 mi NE 5.8 mph - N/A Fog Fog
6:34 AM 69.1 °F 69.1 °F 100% 29.93 in 1.5 mi Calm Calm - N/A   Overcast
6:53 AM 69.1 °F 69.1 °F 100% 29.93 in 1.0 mi Calm Calm - N/A   Overcast
7:03 AM 69.1 °F 69.1 °F 100% 29.95 in 0.8 mi Calm Calm - N/A   Overcast
7:31 AM 69.1 °F 69.1 °F 100% 29.94 in 1.8 mi Calm Calm - N/A   Overcast
7:53 AM 69.1 °F 69.1 °F 100% 29.93 in 1.0 mi ESE 3.5 mph - N/A   Overcast
8:00 AM 70.0 °F 69.1 °F 97% 29.94 in 2.0 mi SE 3.5 mph - N/A   Overcast
8:08 AM 70.0 °F 70.0 °F 100% 29.95 in 2.0 mi South 3.5 mph - N/A   Overcast
8:53 AM 70.0 °F 70.0 °F 100% 29.93 in 4.0 mi SE 6.9 mph - N/A   Overcast
9:53 AM 71.1 °F 70.0 °F 96% 29.91 in 3.0 mi SE 8.1 mph - N/A   Overcast
10:53 AM 71.1 °F 70.0 °F 96% 29.83 in 3.0 mi East 15.0 mph - 0.00 in   Overcast
11:53 AM 71.1 °F 70.0 °F 96% 29.84 in 4.0 mi East 11.5 mph - N/A   Overcast
12:20 PM 72.0 °F 70.0 °F 93% 29.90 in 5.0 mi Variable 3.5 mph - 0.00 in Rain Light Rain
12:33 PM 71.1 °F 70.0 °F 96% 29.90 in 2.0 mi ESE 5.8 mph - 0.03 in Rain Rain
12:44 PM 72.0 °F 70.0 °F 93% 29.90 in 3.0 mi SE 4.6 mph - 0.05 in Rain Light Rain
12:53 PM 72.0 °F 70.0 °F 93% 29.88 in 3.0 mi SSE 4.6 mph - 0.06 in Rain Light Rain
1:53 PM 72.0 °F 71.1 °F 97% 29.87 in 5.0 mi ESE 8.1 mph - 0.04 in Rain Light Rain
2:53 PM 72.0 °F 71.1 °F 97% 29.84 in 3.0 mi East 8.1 mph - 0.04 in Rain Light Rain
3:07 PM 72.0 °F 72.0 °F 100% 29.86 in 2.0 mi East 9.2 mph - 0.02 in Rain Rain
3:15 PM 72.0 °F 72.0 °F 100% 29.86 in 1.5 mi East 9.2 mph - 0.05 in Rain Rain
3:31 PM 72.0 °F 70.0 °F 93% 29.86 in 1.0 mi East 5.8 mph - 0.11 in Rain Heavy Rain
3:35 PM 72.0 °F 70.0 °F 93% 29.85 in 0.8 mi East 6.9 mph - 0.16 in Rain Heavy Rain
3:53 PM 72.0 °F 70.0 °F 93% 29.83 in 1.5 mi ENE 6.9 mph - 0.51 in Rain Rain
4:48 PM 71.6 °F 69.8 °F 94% 29.84 in 0.8 mi ENE 10.4 mph - 0.34 in Rain Heavy Rain
4:53 PM 71.1 °F 70.0 °F 96% 29.83 in 1.2 mi East 17.3 mph - 0.39 in Rain Rain
5:01 PM 72.0 °F 70.0 °F 93% 29.84 in 2.0 mi NNE 10.4 mph - 0.02 in Rain Light Rain
5:16 PM 72.0 °F 70.0 °F 93% 29.84 in 2.5 mi NNE 5.8 mph - 0.05 in Rain Light Rain
5:22 PM 72.0 °F 70.0 °F 93% 29.84 in 3.0 mi NE 6.9 mph - 0.05 in Rain Light Rain
5:37 PM 72.0 °F 70.0 °F 93% 29.85 in 2.5 mi NNE 5.8 mph - 0.06 in Rain Light Rain
5:44 PM 72.0 °F 70.0 °F 93% 29.85 in 3.0 mi NE 5.8 mph - 0.07 in Rain Light Rain
5:48 PM 71.6 °F 69.8 °F 94% 29.85 in 3.0 mi NE 6.9 mph - 0.07 in Rain Light Rain
5:53 PM 72.0 °F 70.0 °F 93% 29.83 in 3.0 mi NE 6.9 mph - 0.07 in Rain Light Rain
6:10 PM 72.0 °F 69.8 °F 93% 29.85 in 2.5 mi NE 6.9 mph - 0.01 in Rain Light Rain
6:35 PM 72.0 °F 70.0 °F 93% 29.84 in 5.0 mi ENE 6.9 mph - 0.02 in Rain Light Rain
6:53 PM 72.0 °F 70.0 °F 93% 29.83 in 2.0 mi NE 4.6 mph - 0.02 in   Overcast
7:03 PM 71.1 °F 70.0 °F 96% 29.84 in 1.0 mi ENE 3.5 mph - N/A   Overcast
7:18 PM 71.1 °F 70.0 °F 96% 29.84 in 4.0 mi East 3.5 mph - N/A   Overcast
7:39 PM 71.1 °F 70.0 °F 96% 29.84 in 1.8 mi NNE 5.8 mph - N/A   Overcast
7:53 PM 71.1 °F 70.0 °F 96% 29.83 in 1.2 mi ENE 4.6 mph - 0.00 in Rain Light Rain
8:02 PM 71.1 °F - N/A% 29.84 in 3.0 mi East 4.6 mph - 0.00 in Rain Light Rain
8:24 PM 70.0 °F - N/A% 29.84 in 1.2 mi NNE 6.9 mph - 0.00 in   Overcast
8:30 PM 70.0 °F - N/A% 29.84 in 0.2 mi NNE 8.1 mph - 0.00 in Fog Fog
8:45 PM 69.1 °F - N/A% 29.85 in 0.2 mi NNE 8.1 mph - 0.00 in Fog Fog
8:53 PM 69.1 °F - N/A% 29.83 in 0.2 mi NE 6.9 mph - 0.00 in Fog Fog
9:06 PM 69.1 °F - N/A% 29.84 in 0.2 mi NE 5.8 mph - N/A Fog Fog
9:33 PM 69.1 °F - N/A% 29.84 in 0.2 mi NNE 4.6 mph - N/A Fog Fog
9:46 PM 69.1 °F 69.1 °F 100% 29.84 in 0.2 mi NNE 3.5 mph - N/A Fog Fog
9:53 PM 69.1 °F 69.1 °F 100% 29.83 in 0.2 mi Calm Calm - N/A Fog Fog
10:01 PM 69.1 °F 69.1 °F 100% 29.84 in 0.5 mi NE 3.5 mph - N/A Fog Fog
10:25 PM 68.0 °F 68.0 °F 100% 29.83 in 0.2 mi NNE 5.8 mph - N/A Fog Fog
10:33 PM 68.0 °F 68.0 °F 100% 29.84 in 0.2 mi NNE 4.6 mph - N/A Fog Fog
10:53 PM 68.0 °F 68.0 °F 100% 29.83 in 0.2 mi Calm Calm - N/A Fog Fog
11:03 PM 68.0 °F 68.0 °F 100% 29.84 in 0.2 mi Calm Calm - N/A Fog Fog
11:13 PM 69.1 °F 69.1 °F 100% 29.84 in 1.0 mi Calm Calm - N/A   Overcast
11:23 PM 69.1 °F 69.1 °F 100% 29.84 in 2.5 mi North 3.5 mph - N/A   Overcast
11:31 PM 68.0 °F 68.0 °F 100% 29.84 in 0.8 mi Calm Calm - N/A   Overcast
11:42 PM 68.0 °F 68.0 °F 100% 29.84 in 1.0 mi Calm Calm - 0.01 in Rain Light Rain
11:48 PM 69.8 °F 69.8 °F 100% 29.84 in 2.0 mi Calm Calm - 0.01 in Rain Light Rain
11:49 PM 69.1 °F 69.1 °F 100% 29.83 in 2.0 mi Calm Calm - 0.01 in Rain Light Rain
11:57 PM 68.0 °F 68.0 °F 100% 29.84 in 2.0 mi Calm Calm - 0.00 in Rain Light Rain